Volver al catálogo

FENGYUN 1C DEB

ActivoSSO
NORAD 30905·DEBRIS·🇨🇳 China

Lanzado May 10, 1999 desde Taiyuan Satellite Launch Center

Loading…

Próximos Pases (próximas 24 horas)

TLE

EnvejeciendoSource: Space-Track

Época: Sep 9, 2026, 11:00 UTC

1 30905U 99025AYT 26252.45895390  .00001515  00000-0  73110-3 0  9999
2 30905  98.8789 333.2454 0053766  30.8670 329.5648 14.19410523999614

Sigue FENGYUN 1C DEB en tiempo real con AllMySat

Download on the App Store